Location: Copeville
(33.0796°N, 96.4155°W)
Time: 08:20:27
(UTC+00:00)

SEEDS - Visible Passes

Search period start: 01 April 2023 00:00
Search period end: 11 April 2023 00:00
Orbit: 573 x 588 km, 97.6° (Epoch: 30 March)

Date Brightness Start Highest point End Pass type
(mag) Time Alt. Az. Time Alt. Az. Time Alt. Az.
01 Apr ? 09:22:46 10° NE 09:25:13 16° E 09:25:13 16° E visible
01 Apr ? 10:57:00 10° N 11:00:41 31° WNW 11:01:34 28° W visible
02 Apr ? 09:27:29 10° NE 09:30:23 18° E 09:30:27 18° E visible
02 Apr ? 11:02:09 10° NNW 11:05:40 27° WNW 11:06:48 24° W visible
03 Apr ? 09:32:14 10° NE 09:35:25 21° E 09:35:39 21° E visible
03 Apr ? 11:07:17 10° NNW 11:10:37 24° WNW 11:11:59 20° W visible
04 Apr ? 09:37:01 10° NE 09:40:25 24° E 09:40:49 24° ESE visible
04 Apr ? 11:12:27 10° NNW 11:15:34 21° WNW 11:17:10 17° W visible
05 Apr ? 09:41:49 10° NE 09:45:23 27° E 09:45:58 27° ESE visible
05 Apr ? 11:17:36 10° NNW 11:20:28 18° WNW 11:22:18 14° WSW visible
06 Apr ? 09:46:37 10° NE 09:50:20 32° E 09:51:05 29° ESE visible
06 Apr ? 11:22:48 10° NNW 11:25:21 16° WNW 11:27:26 12° WSW visible
07 Apr ? 09:51:25 10° NNE 09:55:16 36° E 09:56:11 32° SE visible
07 Apr ? 11:28:02 10° NW 11:30:12 14° WNW 11:32:24 10° W visible
08 Apr ? 09:56:12 10° NNE 10:00:10 42° E 10:01:16 34° SE visible
08 Apr ? 11:33:20 10° NW 11:35:03 12° WNW 11:36:45 10° W visible
09 Apr ? 10:01:00 10° NNE 10:05:02 49° E 10:06:19 36° SSE visible
10 Apr ? 10:05:47 10° NNE 10:09:53 57° E 10:11:20 36° SSE visible
